{"data":{"norad_id":54677,"epoch":"2026-05-24T20:05:09.702240Z","epoch_age_seconds":79169,"freshness":"FRESH","line1":"1 54677U 22166AM  26144.83691785 -.00000084  00000+0 -23372-3 0  9993","line2":"2 54677  87.9251 248.6347 0002010  92.6957 267.4407 13.21824947168352","mean_motion":13.21824947,"eccentricity":0.000201,"inclination_deg":87.9251,"raan_deg":248.6347,"arg_perigee_deg":92.6957,"mean_anomaly_deg":267.4407,"bstar":-0.00023372,"rev_number":16835,"period_min":108.94029525379,"perigee_km":1176.2386464087,"apogee_km":1179.27611595,"semimajor_km":7555.8943811794,"source":"CELESTRAK","updated_at":"2026-05-25T13:38:22.637785Z"}}